TITAN 3C TRANSTAGE DEB, 33511

Orbit data source: Space-Track

TITAN 3C TRANSTAGE DEB, 33511 is space debris in GEO originally from a launch on Thu, 26 Sep 1968 UTC launched from the Air Force Eastern Test Range (AFETR). Debris objects in space refer to the collection of defunct objects orbiting the Earth. Examples of debris include non-operational satellites, rocket bodies, and fragments generated from explosions, collisions, or faulty payload assembly.

Loading next visibility...
Identifier
33511, 1968-081M
Orbit
GEO
Country
Flag of USUS
Related business
Manufacturer
Unknown
Mission
Spacecraft
Bus & Motor
Unknown
Mass
Unknown
Launch date (UTC)
1968-09-26 (57 years ago)
Launch vehicle
Unknown
Launch site
Air Force Eastern Test Range (AFETR)
Object type
Payload
Rocket body
Debris
Shape & HBR
Unknown shape, 1.1 m
Radar Cross Section
Medium (>0.1 m² and <1 m²)

Expand to show TLE details & history
Last TLE update: 11 hours ago

TLE from 11 hours ago
0 TITAN 3C TRANSTAGE DEB
1 33511U 68081M   26062.48887333 -.00000049  00000-0  00000-0 0  9990
2 33511   1.5482  32.4303 0139961 302.4593 230.7303  1.00778703 66356
Epoch: 2026-03-03T11:43Z
TLE epoch observation values (Epoch: 2026-03-03T11:43:58.655Z)
Latitude
0.23762°
Longitude
-132.83941°
Altitude
36,023.826 km
Speed
3.052 km/s
True Right ascension
13h 37m 41s
True Declination
0° 14' 15"
Sunlit
Object was in daylight at epoch
Visualization orbit readout
Latitude
Unknown
Longitude
Unknown
Altitude
Unknown
Speed
Unknown
Apparent Right ascension
Unknown
Apparent Declination
Unknown
Sunlit
N/A
Visualization observer readout
Local Sidereal Time
02:02:11
Azimuth
Unknown
Elevation
Unknown
Doppler factor
Unknown
Orbital elements
Apogee altitude
36,234.333 km
Perigee altitude
35,057.98 km
Semi-major axis
42,024.293 km
Eccentricity
0.014
Inclination
1.5482°
RAAN
32.4303°
Arg. of periapsis
302.4593°
True anomaly
229.50235°
Mean anomaly
230.7303°
Eccentric anomaly
230.11496°
Mean motion
0.25194 °/min
Orbital period
1,428.93 mins
BSTAR
0
Loading maneuver chart data...
Computing Atmospheric mass density...

Documentation

Showing up to 5 results
|